This is the latest recevied weather packets stored in our database for station/object E25XKG-15. If no packets are shown the sender has not sent any weather packets the latest 10 day(s).
| Time | Temp. | Humidity | Pressure | Rain* | Wind** | Luminosity | Snow |
|---|---|---|---|---|---|---|---|
| 1777955265 | 32.78° C | 50% | 1006.5 hPa | - | - | - | - |
| 1777954964 | 32.78° C | 52% | 1006.6 hPa | - | - | - | - |
| 1777954663 | 32.78° C | 53% | 1006.6 hPa | - | - | - | - |
| 1777954362 | 32.78° C | 53% | 1006.7 hPa | - | - | - | - |
| 1777954061 | 32.78° C | 52% | 1006.8 hPa | - | - | - | - |
| 1777953760 | 32.78° C | 53% | 1006.8 hPa | - | - | - | - |
| 1777953459 | 32.78° C | 52% | 1006.8 hPa | - | - | - | - |
| 1777953158 | 32.78° C | 53% | 1006.9 hPa | - | - | - | - |
| 1777952857 | 32.78° C | 53% | 1007 hPa | - | - | - | - |
| 1777952556 | 32.78° C | 53% | 1007.1 hPa | - | - | - | - |
| 1777952255 | 32.78° C | 53% | 1007.1 hPa | - | - | - | - |
| 1777951954 | 32.78° C | 53% | 1007 hPa | - | - | - | - |
| 1777951653 | 32.22° C | 54% | 1007 hPa | - | - | - | - |
| 1777951352 | 32.22° C | 55% | 1007 hPa | - | - | - | - |
| 1777951051 | 32.22° C | 57% | 1007.1 hPa | - | - | - | - |
| 1777950750 | 32.78° C | 56% | 1007.2 hPa | - | - | - | - |
| 1777950449 | 32.22° C | 56% | 1007.2 hPa | - | - | - | - |
| 1777950148 | 32.22° C | 55% | 1007.4 hPa | - | - | - | - |
| 1777949847 | 32.22° C | 53% | 1007.5 hPa | - | - | - | - |
| 1777949546 | 32.22° C | 55% | 1007.7 hPa | - | - | - | - |
| 1777949245 | 32.22° C | 56% | 1007.7 hPa | - | - | - | - |
| 1777948944 | 31.67° C | 59% | 1007.8 hPa | - | - | - | - |
| 1777948643 | 32.22° C | 58% | 1007.8 hPa | - | - | - | - |
| 1777948342 | 31.67° C | 58% | 1007.6 hPa | - | - | - | - |
| 1777948041 | 31.67° C | 58% | 1007.6 hPa | - | - | - | - |
* Rain since midnight (hover to see other rain measurements)
** Current wind speed in m/s (hover to see current wind gust speed)